Weather in Playa Paraíso

Spain     28°07′21″N   16°46′08″W
temp.,
°C
wind,
m/s
gust,
m/s
humid.,
%
clouds,
%
prec.,
mm/h
press.,
hPa
HPBL,
m
9 march, tue
tue900:00+18e667861 0.1 1021412
03:00+18ese657641 0.1 1020551
06:00+17sse347540 0.1 1019507
09:00+18ese66738 0.1 1021681
12:00+19ese1066413 0.1 1022941
15:00+18ese1086518 0.0 1021805
18:00+17ese556612 0.0 1020584
21:00+18ese64640 0.0 1022723
10 march, wed
wed1000:00+17ese65650 0.0 1023688
03:00+16ese55680 0.0 1021478
06:00+16e53700 0.0 1021692
09:00+17ese33675 0.0 1023658
12:00+18ese77673 0.0 1023713
15:00+18ene24662 0.0 1022761
18:00+17se24682 0.0 1021642
21:00+17se12711 0.0 1023480
11 march, thu
thu1100:00+17nw12701 0.0 1023485
03:00+16wsw13710 0.0 1023426
06:00+16ese11720 0.0 1022408
09:00+17ne12680 0.0 1023343
12:00+18ene44610 0.0 1024536
15:00+20e77600 0.0 1022371
18:00+19nne24690 0.0 1022294
21:00+19nnw23740 0.0 1023191
12 march, fri
fri1200:00+18ene11690 0.0 102393
03:00+18sse126614 0.0 1022139
06:00+19ene346138 0.0 1022139
09:00+19ne356168 0.0 1023202
12:00+20e456366 0.0 1024375
15:00+21e775929 0.0 1022389
18:00+19e666924 0.0 1021434
21:00+19nne13760 0.0 1022227
13 march, sat
sat1300:00+18e227821 0.0 1022438
03:00+17e437531 0.0 1021322
06:00+17nne227363 0.0 1020392
09:00+18e5568100 0.0 1021368
12:00+19ene4565100 0.0 1022444
15:00+18e8771100 0.0 1020584
18:00+18e557180 0.0 1019538
21:00+18ene337368 0.0 1021461